EW2832 Weather Reports


Display with metric or nautical units.
time (UTC)temp
F
wind
direction
speed
MPH
gust
MPH
rain 1hr
in
rain 24hr
in
rain mn
in
humidity
%
barometer
mb
20260510174459 56 181 16.0 17.0 0.00 0.00 0.00 33 1017.8
20260510173457 56 181 14.0 16.0 0.00 0.00 0.00 34 1018.1
20260510172958 56 181 13.0 15.0 0.00 0.00 0.00 34 1018.0
20260510171958 55 181 14.0 15.0 0.00 0.00 0.00 33 1018.1
20260510170958 55 181 14.0 15.0 0.00 0.00 0.00 30 1018.1
20260510170458 56 181 14.0 14.0 0.00 0.00 0.00 36 1018.2
20260510165457 56 182 13.0 15.0 0.00 0.00 0.00 35 1018.3
20260510164958 55 181 13.0 15.0 0.00 0.00 0.00 35 1018.3
20260510164458 55 181 13.0 15.0 0.00 0.00 0.00 35 1018.3
20260510163958 55 189 12.0 15.0 0.00 0.00 0.00 36 1018.5
20260510163457 55 189 12.0 13.0 0.00 0.00 0.00 36 1018.3
20260510163002 55 181 12.0 14.0 0.00 0.00 0.00 34 1018.4
20260510162459 55 186 13.0 14.0 0.00 0.00 0.00 33 1018.4
20260510161957 55 186 13.0 15.0 0.00 0.00 0.00 35 1018.3
20260510161457 55 181 12.0 15.0 0.00 0.00 0.00 35 1018.2
20260510160958 55 181 12.0 15.0 0.00 0.00 0.00 33 1018.2
20260510160458 56 181 12.0 14.0 0.00 0.00 0.00 33 1018.1
20260510155958 56 181 12.0 14.0 0.00 0.00 0.00 33 1018.1
20260510155457 56 184 11.0 14.0 0.00 0.00 0.00 33 1018.1
20260510154959 56 186 10.0 11.0 0.00 0.00 0.00 32 1018.1
20260510154458 56 196 8.0 11.0 0.00 0.00 0.00 30 1018.1
20260510153957 57 199 6.0 9.0 0.00 0.00 0.00 30 1018.2
20260510153457 57 176 4.0 9.0 0.00 0.00 0.00 30 1018.0
20260510152959 56 150 4.0 5.0 0.00 0.00 0.00 30 1018.0
20260510152458 56 131 4.0 5.0 0.00 0.00 0.00 30 1017.8
20260510151957 56 160 4.0 4.0 0.00 0.00 0.00 30 1017.8
20260510150957 56 261 3.0 5.0 0.00 0.00 0.00 30 1017.8
20260510150458 55 261 4.0 4.0 0.00 0.00 0.00 30 1017.7
20260510145958 55 292 4.0 7.0 0.00 0.00 0.00 30 1017.7
20260510145457 55 298 5.0 7.0 0.00 0.00 0.00 30 1017.7
20260510144958 55 289 6.0 11.0 0.00 0.00 0.00 30 1017.6
20260510144458 54 294 6.0 11.0 0.00 0.00 0.00 30 1017.5
20260510143457 55 269 3.0 5.0 0.00 0.00 0.00 30 1017.2
20260510142957 55 244 4.0 5.0 0.00 0.00 0.00 30 1017.3
20260510142458 54 242 4.0 6.0 0.00 0.00 0.00 30 1017.3
20260510141958 54 262 5.0 7.0 0.00 0.00 0.00 30 1017.3
20260510141457 54 267 4.0 7.0 0.00 0.00 0.00 30 1017.3
20260510140957 55 266 3.0 4.0 0.00 0.00 0.00 32 1017.2
20260510140457 53 282 3.0 5.0 0.00 0.00 0.00 30 1017.2
20260510135959 53 307 3.0 5.0 0.00 0.00 0.00 30 1017.3
20260510135458 52 319 4.0 7.0 0.00 0.00 0.00 33 1017.3
20260510134957 52 324 4.0 7.0 0.00 0.00 0.00 34 1017.4
20260510134457 52 12 3.0 5.0 0.00 0.00 0.00 36 1017.4
20260510133958 52 342 4.0 7.0 0.00 0.00 0.00 37 1017.3
20260510132957 51 343 5.0 7.0 0.00 0.00 0.00 36 1017.1
20260510131958 51 311 4.0 6.0 0.00 0.00 0.00 38 1017.2
20260510131458 51 282 4.0 6.0 0.00 0.00 0.00 38 1017.0
20260510130458 51 98 3.0 4.0 0.00 0.00 0.00 40 1016.9
20260510125957 50 356 3.0 5.0 0.00 0.00 0.00 40 1016.8
20260510125457 50 351 4.0 7.0 0.00 0.00 0.00 41 1016.9
20260510124458 50 20 4.0 5.0 0.00 0.00 0.00 40 1016.7
20260510123457 50 28 4.0 4.0 0.00 0.00 0.00 41 1016.7
20260510122957 47 40 5.0 5.0 0.00 0.06 0.00 46 1016.8
20260510122457 47 40 5.0 5.0 0.00 0.06 0.00 46 1016.6
20260510121958 47 40 5.0 5.0 0.00 0.06 0.00 46 1016.5
20260510121458 47 40 5.0 5.0 0.00 0.06 0.00 46 1016.5
20260510120957 47 40 5.0 5.0 0.00 0.06 0.00 46 1016.5
20260510115957 47 40 5.0 5.0 0.00 0.06 0.00 46 1016.3
20260510115458 47 40 5.0 5.0 0.00 0.06 0.00 46 1016.2
20260510114957 47 40 5.0 5.0 0.00 0.06 0.00 46 1016.3
20260510114457 47 40 5.0 5.0 0.00 0.06 0.00 46 1016.1
20260510113958 47 40 5.0 5.0 0.00 0.06 0.00 46 1015.9
20260510113458 47 40 5.0 5.0 0.00 0.06 0.00 46 1015.8
20260510112458 47 40 5.0 5.0 0.00 0.06 0.00 46 1015.6
20260510111957 47 40 5.0 5.0 0.00 0.06 0.00 46 1015.6
20260510111457 47 40 5.0 5.0 0.00 0.06 0.00 46 1015.5
20260510110958 47 40 5.0 5.0 0.00 0.06 0.00 46 1015.4
20260510110457 47 40 5.0 5.0 0.00 0.06 0.00 46 1015.4
20260510105957 47 40 5.0 5.0 0.00 0.06 0.00 46 1015.3
20260510105458 47 40 5.0 5.0 0.00 0.06 0.00 46 1015.2
20260510104958 47 40 5.0 5.0 0.00 0.06 0.00 46 1015.1
20260510103957 47 40 5.0 5.0 0.00 0.06 0.00 46 1015.1
20260510103457 47 40 5.0 5.0 0.00 0.06 0.00 46 1014.8
20260510102957 47 40 5.0 5.0 0.00 0.06 0.00 46 1014.9
20260510102457 47 40 5.0 5.0 0.00 0.06 0.00 46 1014.6
20260510101957 47 40 5.0 5.0 0.00 0.06 0.00 46 1014.7
20260510101458 47 40 5.0 5.0 0.00 0.06 0.00 46 1014.6
20260510100957 47 40 5.0 5.0 0.00 0.06 0.00 46 1014.5
20260510095958 47 40 5.0 5.0 0.00 0.06 0.00 46 1014.4
20260510095458 47 40 5.0 5.0 0.00 0.06 0.00 46 1014.3
20260510094958 47 40 5.0 5.0 0.00 0.06 0.00 46 1014.2
20260510093457 47 40 5.0 5.0 0.00 0.06 0.00 46 1014.1
20260510092957 47 40 5.0 5.0 0.00 0.06 0.00 46 1014.0
20260510092457 47 40 5.0 5.0 0.00 0.06 0.00 46 1014.0
20260510091957 47 40 5.0 5.0 0.00 0.06 0.00 46 1013.8
20260510091457 47 40 5.0 5.0 0.00 0.06 0.00 46 1013.7
20260510090957 47 40 5.0 5.0 0.00 0.06 0.00 46 1013.7
20260510090457 47 33 5.0 5.0 0.00 0.06 0.00 46 1013.7
20260510085957 47 19 4.0 7.0 0.00 0.06 0.00 46 1013.7
20260510085457 45 31 4.0 7.0 0.00 0.06 0.00 45 1013.3
20260510084458 46 39 3.0 5.0 0.00 0.06 0.00 45 1013.2
20260510083957 46 41 5.0 6.0 0.00 0.06 0.00 45 1013.0
20260510083457 46 37 5.0 6.0 0.00 0.06 0.00 44 1012.9
20260510082956 46 26 4.0 6.0 0.00 0.06 0.00 44 1012.8
20260510082457 46 36 3.0 4.0 0.00 0.06 0.00 45 1012.8
20260510081957 47 35 3.0 5.0 0.00 0.06 0.00 46 1012.6
20260510081457 47 36 3.0 5.0 0.00 0.06 0.00 45 1012.7
20260510080958 47 74 4.0 5.0 0.00 0.06 0.00 45 1012.4
20260510075957 47 24 5.0 8.0 0.00 0.06 0.00 46 1012.3
20260510075456 48 7 5.0 8.0 0.00 0.06 0.00 47 1012.2
20260510074457 48 44 4.0 8.0 0.00 0.06 0.00 50 1012.0
20260510073957 48 64 2.0 7.0 0.00 0.06 0.00 52 1011.9
20260510073457 48 59 2.0 4.0 0.00 0.06 0.00 52 1011.9
20260510072956 49 24 4.0 6.0 0.00 0.06 0.00 53 1011.7
20260510072457 48 6 4.0 6.0 0.00 0.06 0.00 54 1011.5
20260510071957 48 355 3.0 6.0 0.00 0.06 0.00 55 1011.5
20260510071457 48 349 2.0 4.0 0.00 0.06 0.00 57 1011.4
20260510070957 48 355 2.0 2.0 0.00 0.06 0.00 57 1011.3
20260510070458 48 5 2.0 2.0 0.00 0.06 0.00 56 1011.2
20260510065957 48 7 1.0 2.0 0.00 0.06 0.00 56 1010.9
20260510065457 49 350 0.0 2.0 0.00 0.06 0.00 54 1010.8
20260510064956 49 314 1.0 4.0 0.00 0.06 0.00 53 1010.9
20260510064456 49 314 1.0 4.0 0.00 0.06 0.00 53 1010.8
20260510063957 50 303 1.0 2.0 0.00 0.06 0.00 53 1010.8
20260510063457 50 357 2.0 4.0 0.00 0.06 0.00 53 1010.7
20260510062957 50 4 3.0 5.0 0.00 0.06 0.00 53 1010.5
20260510062456 50 1 3.0 5.0 0.00 0.06 0.00 53 1010.3
20260510061457 50 38 2.0 4.0 0.00 0.06 0.00 52 1010.3
20260510060956 50 107 2.0 2.0 0.00 0.06 0.00 51 1010.5
20260510060456 51 70 2.0 4.0 0.00 0.06 0.00 51 1010.4
20260510055957 51 10 3.0 4.0 0.00 0.06 0.00 51 1010.5
20260510054958 51 30 3.0 4.0 0.00 0.06 0.00 51 1010.3
20260510054458 51 57 3.0 4.0 0.00 0.06 0.00 51 1010.3
20260510052957 52 46 3.0 7.0 0.00 0.06 0.00 50 1010.0
20260510052457 52 61 4.0 7.0 0.00 0.06 0.00 49 1010.0
20260510051957 52 23 4.0 7.0 0.00 0.06 0.00 49 1009.8
20260510051457 52 2 5.0 7.0 0.00 0.06 0.00 49 1009.7
20260510050956 52 286 5.0 7.0 0.00 0.06 0.00 49 1009.7
20260510050457 53 316 6.0 9.0 0.00 0.06 0.00 48 1009.6
20260510045958 53 11 5.0 11.0 0.00 0.06 0.00 48 1009.4
20260510044956 53 29 7.0 11.0 0.00 0.06 0.00 48 1009.3
20260510043458 54 48 6.0 8.0 0.00 0.06 0.00 47 1009.2
20260510042957 54 49 7.0 11.0 0.00 0.06 0.00 46 1009.1
20260510042456 54 45 8.0 11.0 0.00 0.06 0.00 46 1009.0
20260510041957 54 32 8.0 11.0 0.00 0.06 0.00 46 1009.0
20260510041457 55 4 9.0 17.0 0.00 0.06 0.00 45 1008.7
20260510040956 55 2 14.0 17.0 0.00 0.06 0.00 45 1008.7
20260510035958 57 13 11.0 17.0 0.00 0.06 0.00 42 1008.5
20260510035458 59 21 10.0 12.0 0.00 0.06 0.06 42 1008.3
20260510034957 58 10 10.0 14.0 0.01 0.06 0.06 41 1008.3
20260510034456 58 18 11.0 14.0 0.01 0.06 0.06 40 1008.2
20260510033957 58 14 10.0 17.0 0.01 0.06 0.06 41 1008.0
20260510033457 58 344 6.0 17.0 0.01 0.06 0.06 48 1007.8
20260510031957 58 352 2.0 3.0 0.01 0.06 0.06 63 1007.6
20260510031457 59 358 3.0 4.0 0.01 0.06 0.06 63 1007.4
20260510030956 59 355 4.0 4.0 0.01 0.06 0.06 62 1007.5
20260510030457 60 337 4.0 5.0 0.01 0.06 0.06 62 1007.4
20260510025956 60 274 5.0 7.0 0.01 0.06 0.06 62 1007.3
20260510025457 60 274 5.0 7.0 0.00 0.05 0.05 61 1007.1
20260510024956 60 293 5.0 8.0 0.00 0.05 0.05 60 1006.9
20260510024456 60 283 5.0 8.0 0.00 0.05 0.05 61 1006.9
20260510023957 60 260 6.0 8.0 0.00 0.05 0.05 62 1006.6
20260510022956 60 244 5.0 8.0 0.00 0.05 0.05 63 1006.4
20260510022457 60 279 4.0 7.0 0.00 0.05 0.05 62 1006.3
20260510021956 60 297 3.0 7.0 0.00 0.05 0.05 61 1006.1
20260510020956 59 309 4.0 4.0 0.00 0.05 0.05 63 1005.9
20260510020456 59 284 4.0 4.0 0.00 0.05 0.05 64 1006.0
20260510015956 59 249 5.0 7.0 0.00 0.05 0.05 64 1005.8
20260510015457 59 256 6.0 7.0 0.00 0.05 0.05 64 1006.0
20260510014957 59 272 6.0 8.0 0.00 0.05 0.05 64 1005.9
20260510014457 59 246 8.0 11.0 0.00 0.05 0.05 64 1005.8
20260510013957 59 224 9.0 11.0 0.00 0.05 0.05 64 1005.7
20260510013456 60 224 9.0 11.0 0.00 0.05 0.05 63 1005.7
20260510012956 60 230 8.0 11.0 0.00 0.05 0.05 62 1005.6
20260510012457 60 227 10.0 14.0 0.00 0.05 0.05 61 1005.5
20260510011456 60 229 12.0 14.0 0.00 0.05 0.05 61 1005.7
20260510010956 60 226 12.0 13.0 0.00 0.05 0.05 60 1005.4
20260510010456 60 233 12.0 13.0 0.00 0.05 0.05 62 1005.4
20260510005958 60 248 10.0 13.0 0.00 0.05 0.05 62 1005.3
20260510004456 60 263 12.0 14.0 0.00 0.05 0.05 60 1005.0
20260510003956 60 249 10.0 14.0 0.00 0.05 0.05 60 1005.1
20260510003457 60 246 9.0 13.0 0.00 0.05 0.05 61 1005.0
20260510002956 60 245 10.0 13.0 0.00 0.05 0.05 60 1005.2
20260510002456 60 223 10.0 11.0 0.00 0.05 0.05 61 1005.1
20260510001957 60 236 11.0 13.0 0.00 0.05 0.05 62 1005.1
20260510001457 60 241 11.0 13.0 0.00 0.05 0.05 62 1004.9
20260510000456 60 244 10.0 12.0 0.00 0.05 0.05 62 1004.8
20260509235457 60 227 16.0 20.0 0.00 0.05 0.05 61 1004.7
20260509234457 60 247 13.0 16.0 0.00 0.05 0.05 60 1004.6
20260509233957 60 238 12.0 16.0 0.00 0.05 0.05 61 1004.6
20260509233457 60 243 14.0 17.0 0.00 0.05 0.05 61 1004.6
20260509232456 61 300 14.0 17.0 0.00 0.05 0.05 59 1004.3
20260509231957 61 279 13.0 15.0 0.00 0.05 0.05 60 1004.3
20260509231457 61 235 14.0 17.0 0.00 0.05 0.05 60 1004.2
20260509230957 61 230 15.0 17.0 0.00 0.05 0.05 59 1004.2
20260509230457 61 234 14.0 17.0 0.00 0.05 0.05 59 1004.1
20260509225956 61 230 13.0 17.0 0.00 0.05 0.05 60 1004.2
20260509225457 61 222 14.0 17.0 0.00 0.05 0.05 60 1004.0
20260509224957 61 225 14.0 17.0 0.00 0.05 0.05 59 1004.1
20260509224456 61 227 13.0 15.0 0.00 0.05 0.05 59 1003.9
20260509223956 61 227 13.0 16.0 0.00 0.05 0.05 58 1004.0
20260509223456 62 225 14.0 16.0 0.00 0.05 0.05 58 1004.0
20260509222957 62 225 15.0 19.0 0.00 0.05 0.05 57 1004.2
20260509222457 62 225 17.0 19.0 0.00 0.05 0.05 55 1004.0
20260509221957 63 225 17.0 17.0 0.00 0.05 0.05 54 1003.9
20260509221457 63 230 16.0 17.0 0.00 0.05 0.05 54 1003.7
20260509220956 63 230 15.0 16.0 0.01 0.05 0.05 55 1003.7
20260509215956 63 247 15.0 21.0 0.02 0.05 0.05 53 1003.7
20260509215456 63 257 15.0 18.0 0.02 0.05 0.05 51 1003.5
20260509214457 63 226 13.0 18.0 0.02 0.05 0.05 55 1003.5
20260509213956 62 256 11.0 17.0 0.02 0.05 0.05 58 1003.5
20260509213456 61 286 11.0 17.0 0.02 0.05 0.05 57 1003.3
20260509212956 60 269 11.0 15.0 0.02 0.05 0.05 58 1003.6
20260509211459 60 311 16.0 22.0 0.02 0.05 0.05 57 1003.9
20260509210956 62 255 16.0 22.0 0.01 0.04 0.04 54 1004.2
20260509210456 62 222 15.0 18.0 0.02 0.02 0.02 54 1004.2
20260509205956 62 257 17.0 23.0 0.02 0.02 0.02 54 1003.5
20260509205457 62 236 22.0 28.0 0.02 0.02 0.02 56 1003.1
20260509204456 61 227 22.0 35.0 0.02 0.02 0.02 58 1002.7
20260509203956 61 223 18.0 20.0 0.02 0.02 0.02 63 1002.4
20260509203457 62 218 18.0 20.0 0.02 0.02 0.02 64 1002.7
20260509202957 62 233 14.0 19.0 0.02 0.02 0.02 67 1003.0
20260509202456 62 278 10.0 18.0 0.02 0.02 0.02 73 1002.8
20260509201957 61 268 8.0 14.0 0.02 0.02 0.02 74 1002.9
20260509200956 60 192 20.0 21.0 0.01 0.01 0.01 67 1002.9
20260509200456 60 196 21.0 22.0 0.00 0.00 0.00 65 1002.9
20260509195457 61 202 22.0 23.0 0.00 0.00 0.00 64 1002.7
20260509194956 61 200 21.0 23.0 0.00 0.00 0.00 63 1002.9
20260509194456 62 205 21.0 21.0 0.00 0.00 0.00 62 1002.8
20260509193956 62 199 21.0 21.0 0.00 0.00 0.00 60 1003.0
20260509193456 63 192 19.0 21.0 0.00 0.00 0.00 60 1003.0
20260509192956 63 194 16.0 18.0 0.00 0.00 0.00 61 1003.1
20260509192456 62 200 16.0 17.0 0.00 0.00 0.00 62 1003.2
20260509191955 62 205 17.0 18.0 0.00 0.00 0.00 61 1003.4
20260509191456 63 210 17.0 18.0 0.00 0.00 0.00 62 1003.5
20260509190957 62 207 17.0 18.0 0.00 0.00 0.00 62 1003.5
20260509190456 62 201 16.0 17.0 0.00 0.00 0.00 63 1003.6
20260509185955 62 200 16.0 18.0 0.00 0.00 0.00 63 1003.7
20260509185456 62 194 16.0 18.0 0.00 0.00 0.00 64 1003.6
20260509184956 62 190 15.0 17.0 0.00 0.00 0.00 64 1003.7
20260509184457 61 192 14.0 17.0 0.00 0.00 0.00 66 1003.7
20260509183956 61 187 13.0 15.0 0.00 0.00 0.00 68 1003.8
20260509183455 60 188 12.0 12.0 0.00 0.00 0.00 68 1003.8
20260509182955 60 197 11.0 12.0 0.00 0.00 0.00 68 1004.1
20260509182456 60 204 11.0 12.0 0.00 0.00 0.00 68 1004.1
20260509181455 60 189 11.0 12.0 0.00 0.00 0.00 67 1004.2
20260509180956 60 185 11.0 12.0 0.00 0.00 0.00 67 1004.2
20260509180455 60 181 11.0 11.0 0.00 0.00 0.00 67 1004.3
20260509175956 60 183 11.0 12.0 0.00 0.00 0.00 67 1004.1
20260509175455 60 183 11.0 12.0 0.00 0.00 0.00 67 1004.1
20260509174955 60 182 10.0 11.0 0.00 0.00 0.00 67 1004.2